Погода в Джессоре

Бангладеш     23°09′47″N   89°12′10″E
темп.,
°C
ветер,
м/с
пор.,
м/с
влажн.,
%
обл.,
%
осадки,
мм/ч
давл.,
гПа
погр.,
м
26 октября, вт
вт2600:00+25ссз2270100 0.0 101122
03:00+24всв1173100 0.0 101014
06:00+24ссв11777 0.0 101113
09:00+26св21690 0.0 1013466
12:00+29с22580 0.0 10121299
15:00+30с225319 0.0 10091641
18:00+26сз33681 0.0 100927
21:00+26с226849 0.0 101220
27 октября, ср
ср2700:00+24ссв22720 0.0 101225
03:00+23св33760 0.0 101144
06:00+23св23840 0.0 101248
09:00+27св45700 0.0 1014543
12:00+30с56554 0.0 10121579
15:00+30с45541 0.0 10091842
18:00+26с34670 0.0 101052
21:00+24ссв34710 0.0 101261
28 октября, чт
чт2800:00+23с34740 0.0 101262
03:00+22с35790 0.0 101193
06:00+22с35800 0.0 101396
09:00+26с46650 0.0 1015399
12:00+29ссз55470 0.0 10131281
15:00+29ссз44480 0.0 10101394
18:00+25ссз22600 0.0 101111
21:00+23сз336417 0.0 101325
29 октября, пт
пт2900:00+22ссз35687 0.0 101371
03:00+21ссз35730 0.0 101390
06:00+20ссз35760 0.0 101485
09:00+25ссз45650 0.0 1016371
12:00+28ссз33510 0.0 10141157
15:00+29сз34480 0.0 10111302
18:00+24сз22620 0.0 101212
21:00+22зсз34670 0.0 101444
30 октября, сб
сб3000:00+21сз35750 0.0 101375
03:00+20сз35810 0.0 101287
06:00+20сз35830 0.0 101381
09:00+25ссз45670 0.0 1015422
12:00+28ссз445538 0.0 10131425
15:00+29сз44500 0.0 10101598
18:00+25зсз22655 0.0 101114
21:00+23сз22690 0.0 101322